Location: Bottens
(46.6171°N, 6.6605°E)
Time: 01:27:36
(UTC+00:00)

NOSS 2-2 (E) - Pass Details

Date: 20 June 2021
Orbit: 448 x 1757 km, 63.3° (Epoch: 02 August)

Event Time Altitude Azimuth Distance (km) Brightness Sun altitude
Exits shadow 02:07:52 15° 250° (WSW) 1,329 4.8 -11.9°
Maximum altitude 02:10:26 40° 317° (NW) 714 4.0 -11.6°
Drops below altitude 10° 02:14:06 10° 29° (NNE) 1,796 7.5 -11.3°
Sets 02:16:38 0° 37° (NE) 2,838 9.2 -11.0°
